Palapa B2P

operational
NORAD ID: 17706 Int'l Des: 1987-029 Owner: PER Country: ID
HEOCIRCULAR

Palapa B2Pについて

説明を読み込み中...

リアルタイム位置

3D地球を読み込み中...

次回通過

高度履歴

Altitude vs Time

uPlot chart will show altitude changes over time

軌道要素

1 17706U 87029A 26062.60587963 -.00000375 00000-0 00000-0 0 9993
2 17706 14.4132 348.9760 0002982 6.7018 149.5808 0.99914781 41477
Epoch: Mar 3, 2026 • Age: 23 hours

現在のステータス

高度 35887.2 km
速度 3.07 km/s
衛星直下点 -13.76°S, 125.8°E
打ち上げ日 Mar 20, 1987
運用期間 38.9 years
タイプ other

技術仕様

分類 Payload
質量 660.00 kg
乾燥質量 500.00 kg
総質量 1203.00 kg
長さ 6.90 m
直径 2.20 m
スパン 6.90 m
形状 Cyl
製造者 HSES
バスタイプ HS-376
フェーズステータス Unknown Active Status
所有者/国 PER/ID

大規模コンステレーション

Loading constellations...